• Join FlightAware (Why Join?)
  • Login
  • US Flag 
08:47AM EDT


 

Airport Tracker/Info


-or-


 

Live Flight TrackerFlight Track Log ✈ FSR411 ✈ 25-Sep-2013 ✈ KBWG - KDET

Flight Track Log - Related Links

Times and Time Zones

All times are in EDT time to prevent confusion due to time zone crossing. See the FSR411 flight status page for this flight to view local times or setup timezone preferences in your user account.

Time Position Orientation Groundspeed Altitude Reporting Facility
EDT Latitude Longitude Course Direction KTS MPH feet Rate Location/Type
05:03PM 37.0217 -86.3783 23° Northeast 224 258 2,800  Level Indianapolis Center
05:04PM 37.0903 -86.3425 23° Northeast 263 303 4,100 2,040 Climbing Indianapolis Center
05:05PM 37.1603 -86.3342 North 249 287 7,100 3,120 Climbing Indianapolis Center
05:06PM 37.2439 -86.2903 23° Northeast 286 329 10,600 3,180 Climbing Indianapolis Center
05:07PM 37.3272 -86.2406 25° Northeast 326 375 13,700 2,940 Climbing Indianapolis Center
05:08PM 37.4228 -86.1828 26° Northeast 371 427 16,700 3,000 Climbing Indianapolis Center
05:09PM 37.5261 -86.1225 25° Northeast 400 460 19,900 2,460 Climbing Indianapolis Center
05:10PM 37.6286 -86.0636 24° Northeast 419 482 21,900 1,740 Climbing Indianapolis Center
05:12PM 37.7372 -85.9975 26° Northeast 430 495 23,500 1,980 Climbing Indianapolis Center
05:13PM 37.8706 -85.9178 25° Northeast 440 506 26,000 2,160 Climbing Indianapolis Center
05:14PM 37.9814 -85.8511 25° Northeast 442 509 28,000 1,740 Climbing Indianapolis Center
05:15PM 38.0928 -85.7833 26° Northeast 443 510 29,600 1,500 Climbing Indianapolis Center
05:16PM 38.2022 -85.7169 25° Northeast 439 505 31,100 1,440 Climbing Indianapolis Center
05:17PM 38.3122 -85.6506 25° Northeast 437 503 32,600 1,260 Climbing Indianapolis Center
05:18PM 38.4208 -85.5850 25° Northeast 433 498 33,800 1,080 Climbing Indianapolis Center
05:19PM 38.5503 -85.5036 26° Northeast 432 497 34,900 540 Climbing Indianapolis Center
05:20PM 38.6475 -85.4453 25° Northeast 439 505 35,000  Climbing Indianapolis Center
05:21PM 38.7806 -85.3639 25° Northeast 444 511 35,000  Level Indianapolis Center
05:22PM 38.8903 -85.2953 26° Northeast 441 507 35,000 -120 Level Indianapolis Center
05:23PM 38.9978 -85.2219 28° Northeast 442 509 34,800 -540 Descending Indianapolis Center
05:24PM 39.0978 -85.1258 37° Northeast 449 517 34,000 -900 Descending Indianapolis Center
05:25PM 39.1978 -85.0292 37° Northeast 452 520 33,000 -1,080 Descending Indianapolis Center
05:26PM 39.3244 -84.9225 33° Northeast 451 519 31,800 -1,020 Descending Indianapolis Center
05:27PM 39.4314 -84.8586 25° Northeast 446 513 30,900 -900 Descending Indianapolis Center
05:28PM 39.5472 -84.7917 24° Northeast 451 519 30,000 -960 Descending Indianapolis Center
05:29PM 39.6642 -84.7239 24° Northeast 457 526 29,000 -540 Descending Indianapolis Center
05:30PM 39.7808 -84.6544 25° Northeast 460 529 29,000  Level Indianapolis Center
05:31PM 39.9225 -84.5706 24° Northeast 463 533 29,000  Level Indianapolis Center
05:32PM 40.0414 -84.5003 24° Northeast 464 534 29,000 -480 Level Indianapolis Center
05:33PM 40.1581 -84.4300 25° Northeast 463 533 28,100 -960 Descending Indianapolis Center
05:34PM 40.2758 -84.3594 25° Northeast 463 533 27,100 -1,320 Descending Indianapolis Center
05:35PM 40.3928 -84.2883 25° Northeast 461 531 25,400 -1,800 Descending Indianapolis Center
05:36PM 40.5100 -84.2186 24° Northeast 461 531 23,500 -2,100 Descending Indianapolis Center
05:37PM 40.6422 -84.1372 25° Northeast 438 504 21,100 -1,260 Descending Indianapolis Center
05:38PM 40.7469 -84.0725 25° Northeast 420 483 21,000 -60 Descending Indianapolis Center
05:39PM 40.8506 -84.0106 24° Northeast 410 472 21,000 -300 Level Indianapolis Center
05:40PM 40.9556 -83.9442 26° Northeast 416 479 20,400 -720 Descending Indianapolis Center
05:42PM 41.0597 -83.8819 24° Northeast 417 480 19,600 -1,020 Descending Indianapolis Center
05:43PM 41.1819 -83.8050 25° Northeast 413 475 18,400 -1,080 Descending Indianapolis Center
05:44PM 41.2844 -83.7139 34° Northeast 398 458 17,300 -1,020 Descending Cleveland Center
05:45PM 41.3481 -83.6017 53° Northeast 382 440 16,200 -1,140 Descending Cleveland Center
05:46PM 41.4119 -83.4892 53° Northeast 383 441 15,000 -1,380 Descending Cleveland Center
05:46PM 41.4536 -83.4208 51° Northeast 381 438 14,100 -1,800 Descending Cleveland Center
05:47PM 41.4878 -83.3617 52° Northeast 374 430 13,200 -1,740 Descending Cleveland Center
05:48PM 41.5506 -83.2533 52° Northeast 367 422 11,500 -1,680 Descending Cleveland Center
05:48PM 41.5511 -83.2508 73° East 369 425 11,500 -1,260 Level Cleveland Center
05:49PM 41.6061 -83.1536 53° Northeast 365 420 10,200 -1,380 Descending Cleveland Center
05:49PM 41.6208 -83.1317 48° Northeast 356 410 10,000 -600 Descending Cleveland Center
05:50PM 41.6889 -83.0628 37° Northeast 299 344 9,600 -1,020 Descending Cleveland Center
05:51PM 41.7650 -83.0256 20° North 287 330 8,000 -1,500 Descending Cleveland Center
05:52PM 41.8411 -82.9908 19° North 271 312 6,600 -1,380 Descending Cleveland Center
05:53PM 41.9164 -82.9800 North 275 316 5,300 -1,380 Descending Cleveland Center
05:53PM 41.9256 -82.9797 North 279 321 5,100 -300 Descending Cleveland Center
05:54PM 41.9953 -82.9722 North 273 314 5,000 -120 Descending Cleveland Center
05:54PM 41.9919 -82.9711 166° South 275 316 5,000 -600 Level Cleveland Center
05:55PM 42.0692 -82.9653 North 268 308 4,400 -600 Descending Cleveland Center
05:55PM 42.0658 -82.9631 154° Southeast 271 312 4,400 -420 Level Cleveland Center
05:56PM 42.1389 -82.9567 North 266 306 4,000 -420 Descending Cleveland Center
05:56PM 42.1533 -82.9597 351° North 246 283 4,000 -480 Level Cleveland Center
05:57PM 42.2047 -82.9594 360° North 251 289 3,500 -840 Descending Cleveland Center
05:57PM 42.2181 -82.9631 349° North 234 269 3,200 -540 Descending Cleveland Center
05:58PM 42.2736 -82.9878 342° North 231 266 3,000 -240 Descending Cleveland Center
05:58PM 42.2789 -82.9908 337° Northwest 219 252 3,000  Level Cleveland Center
05:59PM 42.3261 -83.0311 328° Northwest 219 252 3,000  Level Cleveland Center
05:59PM 42.3244 -83.0289 135° Southeast 217 250 3,000 -720 Level Cleveland Center
06:00PM 42.3747 -83.0686 330° Northwest 213 245 2,200 -480 Descending Cleveland Center
06:01PM 42.4192 -83.1003 332° Northwest 152 175 2,100 -120 Descending Cleveland Center
06:01PM 42.4161 -83.1008 188° South 191 220 2,100 -600 Level Cleveland Center
06:02PM 42.4408 -83.0639 48° Northeast 139 160 1,500 -600 Descending Cleveland Center
06:02PM 42.4400 -83.0625 129° Southeast 163 188 1,500 -600 Level Cleveland Center
06:03PM 42.4231 -83.0231 120° Southeast 140 161 800 -720 Descending Cleveland Center
06:05PM 42.4093 -83.0102 103° East  Level Estimated
06:12PM 42.4093 -83.0102 103° East  Level Estimated